SL-12 R/B(AUX MOTOR), 37143

Orbit data source: Space-Track

SL-12 R/B(AUX MOTOR), 37143 is space debris originally from a launch on Thu, 02 Sep 2010 UTC launched from the Tyuratam Missile And Space Complex (TTMTR). Debris objects in space refer to the collection of defunct objects orbiting the Earth. Examples of debris include non-operational satellites, rocket bodies, and fragments generated from explosions, collisions, or faulty payload assembly.

Loading next visibility...
Identifier
37143, 2010-041G
Orbit
Active
Country
Flag of CISCIS
Related business
Manufacturer
RKKE
Mission
Spacecraft
Bus & Motor
SOZ, Unknown motor
Mass
56 kg wet, 56 kg dry
Launch date (UTC)
2010-09-02 (15 years ago)
Launch vehicle
Unknown
Launch site
Tyuratam Missile And Space Complex (TTMTR)
Object type
Payload
Rocket body
Debris
Shape & HBR
Cyl, 0.6 m
Radar Cross Section
0.660 m², Medium (>0.1 m² and < 1m²)

Expand to show TLE details & history
Last TLE update: 1 day ago

TLE from 1 day ago
0 SL-12 R/B(AUX MOTOR)
1 37143U 10041G   25286.44945523  .00093572  00000-0  49320-2 0  9999
2 37143  64.4302  89.7513 3472024 297.9373  31.3307  8.43488076260636
Epoch: 2025-10-13T10:47Z
TLE epoch observation values (Epoch: 2025-10-13T10:47:12.931Z)
Latitude
-0.00004°
Longitude
-94.30467°
Altitude
1,338.252 km
Speed
8.015 km/s
True Right ascension
05h 59m 00s
True Declination
0° 00' 00"
Sunlit
Object was in daylight at epoch
Visualization orbit readout
Latitude
Unknown
Longitude
Unknown
Altitude
Unknown
Speed
Unknown
Apparent Right ascension
Unknown
Apparent Declination
Unknown
Sunlit
N/A
Visualization observer readout
Local Sidereal Time
10:06:57
Azimuth
Unknown
Elevation
Unknown
Doppler factor
Unknown
Orbital elements
Apogee altitude
7,353.841 km
Perigee altitude
275.802 km
Semi-major axis
10,192.958 km
Eccentricity
0.3472
Inclination
64.4302°
RAAN
89.7513°
Arg. of periapsis
297.9373°
True anomaly
62.16191°
Mean anomaly
31.3307°
Eccentric anomaly
45.52584°
Mean motion
2.10908 °/min
Orbital period
170.69 mins
BSTAR
0.004932
Loading maneuver chart data...
Computing Atmospheric mass density...
Loading historical data...
Loading historical data...
Loading historical data...
Loading historical data...
Loading historical data...
Loading historical data...
Loading historical data...

Documentation

Showing up to 5 results
|